Miscellaneous Local Product
Issued by NWS Hastings, NE

Home | Current Version | Previous Version | Graphics & Text | Print | Product List | Glossary Off
Versions: 1 2 3 4 5 6 7 8 9 10 11 12 13 14 15 16 17 18 19 20 21 22 23 24 25 26 27 28 29 30 31 32 33 34 35 36 37 38 39 40 41 42 43 44 45 46 47 48 49 50

000
AXUS43 KGID 300302
MISGRI

GID CWA HOURLY WEATHER ROUNDUP
NATIONAL WEATHER SERVICE HASTINGS NE
1000 PM CDT THU SEP 29 2016

NOTE: "FAIR" INDICATES FEW OR NO CLOUDS BELOW 12,000 FEET WITH NO
SIGNIFICANT WEATHER AND/OR OBSTRUCTIONS TO VISIBILITY.

...SOUTH CENTRAL NEBRASKA...

CITY           SKY/WX    TMP DP  RH WIND       PRES   REMARKS
GRAND ISLAND   CLEAR     52  46  80 SE6       30.34S
HASTINGS       CLEAR     53  44  71 E3        30.35R
KEARNEY        CLEAR     52  43  71 SE6       30.33S
ORD            CLEAR     47  41  80 CALM      30.33R
YORK           PTCLDY    54  46  76 SE3       30.35S
AURORA         CLEAR     51  46  84 SE6       30.35R
LEXINGTON      CLEAR     51  42  72 SE5       30.33S
HOLDREGE       CLEAR     47  41  77 SE5       30.34S
HEBRON         CLEAR     50  46  86 CALM      30.34S

...NEBRASKA PANHANDLE...

CITY           SKY/WX    TMP DP  RH WIND       PRES   REMARKS
CHADRON        CLEAR     68  40  35 S24G33    30.18S
ALLIANCE       CLEAR     59  42  53 SE14      30.25R
SCOTTSBLUFF    CLEAR     63  43  48 SE18G25   30.24R
SIDNEY         CLEAR     61  42  49 SE12      30.28R

...WESTERN AND NORTH CENTRAL NEBRASKA...

CITY           SKY/WX    TMP DP  RH WIND       PRES   REMARKS
VALENTINE      CLEAR     57  40  52 SE12      30.29R
AINSWORTH      CLEAR     55  44  67 SE10      30.31S
ONEILL         CLEAR     53  44  70 SE8       30.34S
BROKEN BOW     CLEAR     49  43  80 SE3       30.33R
IMPERIAL       CLEAR     57  41  55 SE13      30.29S
NORTH PLATTE   CLEAR     50  40  68 E7        30.31S
MCCOOK         CLEAR     55  43  63 SE9       30.31R

...EASTERN NEBRASKA...

CITY           SKY/WX    TMP DP  RH WIND       PRES   REMARKS
NORFOLK        CLEAR     52  45  77 SE5       30.35R
SO SIOUX CITY  CLEAR     57  47  69 E6        30.35R
TEKAMAH        CLEAR     49  46  90 N5        30.34R
COLUMBUS       CLEAR     48  37  66 CALM      30.36R
ALBION         CLEAR     50  45  83 CALM      30.35R
OMAHA EPPLEY   CLEAR     55  48  77 NW6       30.34R
OFFUTT AFB     CLEAR     51  50  96 N1        30.33R
MILLARD        CLEAR     55  51  86 CALM      30.34R
LINCOLN        CLEAR     53  47  79 N3        30.35R
NEBRASKA CITY  CLEAR     57  43  58 CALM      30.33S
BEATRICE       CLEAR     52  48  86 NE3       30.33S
FALLS CITY     CLEAR     57  48  72 CALM      30.32R

...NORTHERN KANSAS...

CITY           SKY/WX    TMP DP  RH WIND       PRES   REMARKS
GOODLAND       CLEAR     57  39  51 SE10      30.29R
HILL CITY      CLEAR     49  45  86 E6        30.33R
NORTON         CLEAR     54  41  62 E6        30.32S
PHILLIPSBURG   CLEAR     54  46  76 E3        30.34S
SMITH CENTER   HAZE      54  45  71 CALM      30.34S VSB 1/4
HAYS           CLEAR     54  39  58 E7        30.33S
RUSSELL        CLEAR     55  47  74 E8        30.32S
CONCORDIA      CLEAR     54  47  77 CALM      30.33S
SALINA         CLEAR     56  48  74 CALM      30.33R
TOPEKA         CLEAR     55  50  83 CALM      30.31R



USA.gov is the U.S. government's official web portal to all federal, state and local government web resources and services.